DW8452 Acharnes GR current weather conditions

sailwx.info

Wind from 329 at 0 knots gusting 2

Air temperature 8.3° C
Dewpoint 5.8° C

Last reported at 2019-Dec-08 23:10 UTC.
Time now 2019-Dec-08 23:46 UTC

Location: N 38°05' E 023°45'.
View on Google Maps.

See reports from other nearby stations

  
Tides and Currents Weather Stations Pressure Air Temp Water Temp Dewpoint Dewpoint Depression Visibility Wind Speed Wind Dir Waves Ship Positions
date/time (UTC)wind fromknots sea level pressurealtimeterstation pressurevisibilityair tempwater tempwave heightnotes
2019-Dec-08 23:10 329 0 gusting 2 8.3
2019-Dec-08 23:05 324 0 gusting 3 8.3
2019-Dec-08 23:00 330 0 gusting 3 8.3
2019-Dec-08 22:55 348 8.9
2019-Dec-08 22:50 010 8.9
2019-Dec-08 22:45 011 0 gusting 3 8.9
2019-Dec-08 22:40 357 0 gusting 3 8.9
2019-Dec-08 22:35 353 8.9
2019-Dec-08 22:30 327 0 gusting 3 8.9
2019-Dec-08 22:25 339 0 gusting 3 8.9
2019-Dec-08 22:20 011 0 gusting 3 8.9
2019-Dec-08 22:15 020 8.9
2019-Dec-08 22:10 015 8.9
2019-Dec-08 22:05 009 8.9
2019-Dec-08 22:00 033 0 gusting 2 8.9
2019-Dec-08 21:55 025 8.9
2019-Dec-08 21:50 359 8.9
2019-Dec-08 21:45 330 0 gusting 3 8.9
2019-Dec-08 21:40 314 0 gusting 3 8.9
2019-Dec-08 21:35 321 8.3
2019-Dec-08 21:30 345 8.9
2019-Dec-08 21:25 008 8.9
2019-Dec-08 21:20 002 8.9
2019-Dec-08 21:15 341 8.9
2019-Dec-08 21:10 328 8.9
2019-Dec-08 21:05 018 0 gusting 2 9.4
2019-Dec-08 21:00 033 8.9
2019-Dec-08 20:55 015 9.4
2019-Dec-08 20:50 022 9.4
2019-Dec-08 20:45 350 9.4
2019-Dec-08 20:40 317 0 gusting 2 9.4
2019-Dec-08 20:35 271 9.4
2019-Dec-08 20:30 282 9.4
2019-Dec-08 20:25 271 0 gusting 2 9.4
2019-Dec-08 20:20 229 9.4
2019-Dec-08 20:15 252 9.4
2019-Dec-08 20:10 249 0 gusting 3 9.4
2019-Dec-08 20:05 230 9.4
2019-Dec-08 20:00 199 9.4
2019-Dec-08 19:55 261 10.0
2019-Dec-08 19:50 338 10.0
2019-Dec-08 19:45 127 10.0
2019-Dec-08 19:40 155 10.0
2019-Dec-08 19:35 163 0 gusting 2 10.6
2019-Dec-08 19:30 181 0 gusting 3 10.6
2019-Dec-08 19:25 225 1 gusting 4 10.6
2019-Dec-08 19:20 252 1 gusting 4 10.6
2019-Dec-08 19:15 241 1 gusting 4 10.6
2019-Dec-08 19:10 209 0 gusting 3 11.1
2019-Dec-08 19:05 220 0 gusting 3 11.1
2019-Dec-08 19:00 253 0 gusting 3 11.7
2019-Dec-08 18:55 040 11.7
2019-Dec-08 18:50 068 0 gusting 3 11.7
2019-Dec-08 18:45 074 0 gusting 3 11.7
2019-Dec-08 18:40 069 0 gusting 3 11.7
2019-Dec-08 18:35 063 0 gusting 3 11.7
2019-Dec-08 18:30 043 1 gusting 4 11.7
2019-Dec-08 18:25 008 1 gusting 6 12.2
2019-Dec-08 18:20 350 1 gusting 6 11.7
2019-Dec-08 18:15 344 1 gusting 5 11.7
2019-Dec-08 18:10 316 0 gusting 3 11.7
2019-Dec-08 18:05 308 0 gusting 5 11.7
2019-Dec-08 18:00 354 0 gusting 5 11.7
2019-Dec-08 17:55 349 0 gusting 4 11.7
2019-Dec-08 17:50 337 0 gusting 3 11.7
2019-Dec-08 17:45 341 1 gusting 6 11.7
2019-Dec-08 17:40 328 1 gusting 6 12.2
2019-Dec-08 17:35 321 1 gusting 6 12.2
2019-Dec-08 17:30 308 1 gusting 6 12.2
2019-Dec-08 17:25 307 0 gusting 3 12.2
2019-Dec-08 17:20 332 1 gusting 6 12.2
2019-Dec-08 17:15 358 2 gusting 7 12.2
2019-Dec-08 17:10 033 3 gusting 7 12.2
2019-Dec-08 17:05 025 3 gusting 7 12.8
2019-Dec-08 17:00 021 3 gusting 7 12.8
2019-Dec-08 16:55 014 1 gusting 7 12.2
2019-Dec-08 16:50 331 1 gusting 4 12.8
2019-Dec-08 16:45 356 1 gusting 5 12.8
2019-Dec-08 16:40 342 2 gusting 6 12.8
2019-Dec-08 16:35 317 1 gusting 6 12.8
2019-Dec-08 16:30 336 1 gusting 6 12.8
2019-Dec-08 16:25 358 1 gusting 6 13.3
2019-Dec-08 16:20 354 1 gusting 6 13.3
2019-Dec-08 16:15 358 1 gusting 6 13.3
2019-Dec-08 16:10 356 1 gusting 6 13.3
2019-Dec-08 16:05 345 0 gusting 4 13.9
2019-Dec-08 16:00 348 0 gusting 4 13.9
2019-Dec-08 15:55 318 1 gusting 5 13.9
2019-Dec-08 15:50 313 1 gusting 5 13.9
2019-Dec-08 15:45 324 1 gusting 8 14.4
2019-Dec-08 15:40 340 2 gusting 9 14.4
2019-Dec-08 15:35 344 3 gusting 9 14.4
2019-Dec-08 15:30 331 3 gusting 8 14.4
2019-Dec-08 15:25 319 3 gusting 6 14.4
2019-Dec-08 15:20 319 3 gusting 6 14.4
2019-Dec-08 15:15 316 2 gusting 8 15.0
2019-Dec-08 15:10 314 2 gusting 8 15.0
2019-Dec-08 15:05 313 1 gusting 6 15.0
2019-Dec-08 15:00 311 1 gusting 6 15.0
2019-Dec-08 14:55 318 1 gusting 6 15.6
2019-Dec-08 14:50 335 1 gusting 5 15.6
2019-Dec-08 14:45 339 1 gusting 5 15.6
2019-Dec-08 14:40 351 1 gusting 5 16.1
2019-Dec-08 14:35 350 2 gusting 6 16.1
2019-Dec-08 14:30 347 2 gusting 7 16.1
2019-Dec-08 14:25 352 1 gusting 7 16.1
2019-Dec-08 14:20 346 1 gusting 7 16.7
2019-Dec-08 14:15 351 1 gusting 6 16.7
2019-Dec-08 14:10 003 2 gusting 6 16.7
2019-Dec-08 14:05 009 2 gusting 6 16.7
2019-Dec-08 14:00 004 1 gusting 7 16.7
2019-Dec-08 13:55 328 2 gusting 8 16.7
2019-Dec-08 13:50 322 2 gusting 8 16.7
2019-Dec-08 13:45 331 1 gusting 8 16.7
2019-Dec-08 13:40 332 2 gusting 9 16.7
2019-Dec-08 13:35 312 2 gusting 9 16.7
2019-Dec-08 13:30 312 1 gusting 8 17.2
2019-Dec-08 13:25 010 1 gusting 11 17.2
2019-Dec-08 13:20 080 0 gusting 11 17.2
2019-Dec-08 13:15 012 1 gusting 6 17.2
2019-Dec-08 13:10 343 1 gusting 6 17.2
2019-Dec-08 13:05 297 0 gusting 6 17.2
2019-Dec-08 13:00 305 0 gusting 6 17.2
2019-Dec-08 12:55 005 0 gusting 5 17.2
2019-Dec-08 12:50 353 0 gusting 6 17.2
2019-Dec-08 12:45 010 1 gusting 6 17.2
2019-Dec-08 12:40 040 1 gusting 7 17.2
2019-Dec-08 12:35 023 1 gusting 7 17.2
2019-Dec-08 12:30 035 0 gusting 5 17.2
2019-Dec-08 12:25 356 1 gusting 6 17.8
2019-Dec-08 12:20 339 1 gusting 7 17.2
2019-Dec-08 12:15 299 1 gusting 9 17.8
2019-Dec-08 12:10 326 1 gusting 9 17.8
2019-Dec-08 12:05 335 1 gusting 8 17.2
2019-Dec-08 12:00 306 2 gusting 11 17.2
2019-Dec-08 11:55 294 3 gusting 11 17.2
2019-Dec-08 11:50 252 2 gusting 11 17.2
2019-Dec-08 11:45 264 2 gusting 9 17.2
2019-Dec-08 11:40 288 3 gusting 9 17.2
2019-Dec-08 11:35 285 3 gusting 9 17.2
2019-Dec-08 11:30 299 2 gusting 9 17.2
2019-Dec-08 11:25 305 2 gusting 9 17.2
2019-Dec-08 11:20 288 2 gusting 13 17.2
2019-Dec-08 11:15 284 3 gusting 16 17.2
2019-Dec-08 11:10 287 3 gusting 16 17.2
2019-Dec-08 11:05 337 4 gusting 18 17.2
2019-Dec-08 11:00 326 5 gusting 18 17.2
2019-Dec-08 10:55 322 4 gusting 13 17.8
2019-Dec-08 10:50 313 3 gusting 13 17.2
2019-Dec-08 10:45 273 3 gusting 13 17.8
2019-Dec-08 10:40 313 2 gusting 9 17.8
2019-Dec-08 10:35 289 2 gusting 11 17.8
2019-Dec-08 10:30 269 2 gusting 11 17.2
2019-Dec-08 10:25 275 2 gusting 11 17.2
2019-Dec-08 10:20 299 2 gusting 11 17.8
2019-Dec-08 10:15 002 2 gusting 12 17.2
2019-Dec-08 10:10 014 2 gusting 12 17.2
2019-Dec-08 10:05 331 2 gusting 12 17.8
2019-Dec-08 10:00 303 2 gusting 10 17.2
2019-Dec-08 09:55 319 2 gusting 7 17.8
2019-Dec-08 09:50 036 1 gusting 7 17.2
2019-Dec-08 09:45 230 1 gusting 10 17.2
2019-Dec-08 09:40 243 2 gusting 10 17.8
2019-Dec-08 09:35 307 2 gusting 7 17.2
2019-Dec-08 09:30 334 2 gusting 8 17.2
2019-Dec-08 09:25 335 1 gusting 8 17.2
2019-Dec-08 09:20 334 0 gusting 6 17.2
2019-Dec-08 09:15 281 1 gusting 6 17.2
2019-Dec-08 09:10 279 2 gusting 7 17.2
2019-Dec-08 09:05 222 2 gusting 7 17.2
2019-Dec-08 09:00 326 1 gusting 6 17.2
2019-Dec-08 08:55 337 0 gusting 5 16.7
2019-Dec-08 08:50 284 0 gusting 5 16.7
2019-Dec-08 08:45 187 0 gusting 4 16.7
2019-Dec-08 08:40 128 0 gusting 4 16.7
2019-Dec-08 08:35 164 0 gusting 3 16.7
2019-Dec-08 08:30 173 16.7
2019-Dec-08 08:25 172 0 gusting 2 16.7
2019-Dec-08 08:20 163 0 gusting 2 16.7
2019-Dec-08 08:15 148 0 gusting 2 16.1
2019-Dec-08 08:10 140 16.1
2019-Dec-08 08:05 145 15.6
2019-Dec-08 08:00 154 0 gusting 2 15.6
2019-Dec-08 07:55 158 0 gusting 3 15.6
2019-Dec-08 07:50 156 1 gusting 3 15.6
2019-Dec-08 07:45 142 0 gusting 3 15.0
2019-Dec-08 07:40 136 15.0
2019-Dec-08 07:35 183 0 gusting 5 15.0
2019-Dec-08 07:30 169 1 gusting 5 15.0
2019-Dec-08 07:25 142 0 gusting 5 14.4
2019-Dec-08 07:20 352 14.4
2019-Dec-08 07:15 099 14.4
2019-Dec-08 07:10 041 13.9
2019-Dec-08 07:05 001 13.3
2019-Dec-08 07:00 026 13.3
2019-Dec-08 06:55 150 0 gusting 2 12.8
2019-Dec-08 06:50 037 0 gusting 2 12.8
2019-Dec-08 06:45 040 0 gusting 2 12.2
2019-Dec-08 06:40 086 0 gusting 2 12.2
2019-Dec-08 06:35 033 11.7
2019-Dec-08 06:30 021 0 gusting 2 11.1
2019-Dec-08 06:25 029 0 gusting 3 11.1
2019-Dec-08 06:20 022 0 gusting 3 10.6
2019-Dec-08 06:15 350 0 gusting 3 10.6
2019-Dec-08 06:10 001 0 gusting 3 10.6
2019-Dec-08 06:05 022 0 gusting 3 10.0
2019-Dec-08 06:00 342 0 gusting 3 10.0
2019-Dec-08 05:55 346 0 gusting 3 10.0
2019-Dec-08 05:50 002 0 gusting 3 9.4
2019-Dec-08 05:45 353 0 gusting 3 9.4
2019-Dec-08 05:40 338 0 gusting 3 9.4
2019-Dec-08 05:35 017 0 gusting 2 9.4
2019-Dec-08 05:30 027 0 gusting 2 9.4
2019-Dec-08 05:25 352 0 gusting 5 9.4
2019-Dec-08 05:20 356 0 gusting 5 9.4
2019-Dec-08 05:15 334 0 gusting 3 9.4
2019-Dec-08 05:10 323 0 gusting 3 9.4
2019-Dec-08 05:05 344 0 gusting 3 9.4
2019-Dec-08 05:00 357 0 gusting 2 9.4
2019-Dec-08 04:55 003 9.4
2019-Dec-08 04:50 088 0 gusting 2 9.4
2019-Dec-08 04:45 095 0 gusting 2 9.4
2019-Dec-08 04:40 335 9.4
2019-Dec-08 04:35 029 9.4
2019-Dec-08 04:30 050 10.0
2019-Dec-08 04:25 034 0 gusting 3 9.4
2019-Dec-08 04:20 066 1 gusting 4 10.0
2019-Dec-08 04:15 064 1 gusting 4 10.0
2019-Dec-08 04:10 039 1 gusting 3 10.0
2019-Dec-08 04:05 016 0 gusting 4 10.0
2019-Dec-08 04:00 323 0 gusting 4 10.0
2019-Dec-08 03:55 333 0 gusting 3 10.0
2019-Dec-08 03:50 006 0 gusting 3 10.0
2019-Dec-08 03:45 013 0 gusting 3 9.4
2019-Dec-08 03:40 303 0 gusting 3 10.0
2019-Dec-08 03:35 001 0 gusting 3 9.4
2019-Dec-08 03:30 038 0 gusting 3 9.4
2019-Dec-08 03:25 097 0 gusting 3 10.0
2019-Dec-08 03:20 091 0 gusting 3 10.0
2019-Dec-08 03:15 044 9.4
2019-Dec-08 03:10 042 10.0
2019-Dec-08 03:05 356 0 gusting 3 10.0
2019-Dec-08 03:00 005 0 gusting 3 9.4
2019-Dec-08 02:55 032 0 gusting 3 9.4
2019-Dec-08 02:50 014 0 gusting 2 9.4
2019-Dec-08 02:45 028 0 gusting 3 9.4
2019-Dec-08 02:40 012 0 gusting 3 9.4
2019-Dec-08 02:35 005 0 gusting 3 9.4
2019-Dec-08 02:30 042 0 gusting 2 9.4
2019-Dec-08 02:25 033 9.4
2019-Dec-08 02:20 354 9.4
2019-Dec-08 02:15 355 9.4
2019-Dec-08 02:10 030 9.4
2019-Dec-08 02:05 004 0 gusting 4 9.4
2019-Dec-08 02:00 021 0 gusting 4 9.4
2019-Dec-08 01:55 066 1 gusting 4 10.0
2019-Dec-08 01:50 079 0 gusting 3 9.4
2019-Dec-08 01:45 064 9.4
2019-Dec-08 01:40 042 9.4
2019-Dec-08 01:35 338 10.0
2019-Dec-08 01:30 031 0 gusting 3 10.0
2019-Dec-08 01:25 033 0 gusting 3 10.0
2019-Dec-08 01:20 057 0 gusting 3 10.0
2019-Dec-08 01:15 053 0 gusting 3 10.0
2019-Dec-08 01:10 039 1 gusting 4 10.0
2019-Dec-08 01:05 052 1 gusting 4 10.0
2019-Dec-08 01:00 060 0 gusting 3 10.0
2019-Dec-08 00:55 034 10.0
2019-Dec-08 00:50 037 0 gusting 3 10.0
2019-Dec-08 00:45 030 0 gusting 3 10.0
2019-Dec-08 00:40 042 0 gusting 3 10.0
2019-Dec-08 00:35 057 0 gusting 2 10.6
2019-Dec-08 00:30 053 0 gusting 4 10.6
2019-Dec-08 00:25 049 0 gusting 4 10.6
2019-Dec-08 00:20 031 0 gusting 6 10.6
2019-Dec-08 00:15 048 0 gusting 6 10.6
2019-Dec-08 00:10 080 0 gusting 3 10.6
2019-Dec-08 00:05 087 0 gusting 3 10.6
2019-Dec-08 00:00 090 10.6
2019-Dec-07 23:55 057 0 gusting 2 11.1
2019-Dec-07 23:50 017 0 gusting 2 11.1
2019-Dec-07 23:45 015 0 gusting 2 11.1
2019-Dec-07 23:40 038 0 gusting 2 11.1
2019-Dec-07 23:35 063 0 gusting 2 11.1
2019-Dec-07 23:30 071 0 gusting 3 11.1
2019-Dec-07 23:25 056 0 gusting 3 11.1
2019-Dec-07 23:20 040 11.1
2019-Dec-07 23:15 224 11.7
2019-Dec-07 23:10 325 11.1
2019-Dec-07 23:05 322 11.7
2019-Dec-07 23:00 340 11.7
2019-Dec-07 22:55 031 11.7
2019-Dec-07 22:50 326 11.7
2019-Dec-07 22:45 329 11.7
2019-Dec-07 22:40 342 0 gusting 3 11.7
2019-Dec-07 22:35 012 0 gusting 3 11.1
2019-Dec-07 22:30 009 0 gusting 3 11.1
2019-Dec-07 22:25 341 0 gusting 3 11.1
2019-Dec-07 22:20 349 0 gusting 2 10.6
2019-Dec-07 22:15 349 0 gusting 2 10.6
2019-Dec-07 22:10 359 11.1
2019-Dec-07 22:05 019 11.1
2019-Dec-07 22:00 006 11.1
2019-Dec-07 21:55 018 11.1
2019-Dec-07 21:50 007 0 gusting 2 11.1
2019-Dec-07 21:45 346 0 gusting 3 11.1
2019-Dec-07 21:40 330 0 gusting 3 11.1
2019-Dec-07 21:35 289 11.1
2019-Dec-07 21:30 278 11.1
2019-Dec-07 21:25 305 10.6
2019-Dec-07 21:20 003 10.6
2019-Dec-07 21:15 003 10.6
2019-Dec-07 21:10 336 0 gusting 3 10.6
2019-Dec-07 21:05 317 0 gusting 3 10.6
2019-Dec-07 21:00 321 10.6
2019-Dec-07 20:55 335 10.6
2019-Dec-07 20:50 295 10.6
2019-Dec-07 20:45 036 10.6
2019-Dec-07 20:40 356 10.6
2019-Dec-07 20:35 276 10.6
2019-Dec-07 20:30 280 10.6
2019-Dec-07 20:25 350 10.6
2019-Dec-07 20:20 296 11.1
2019-Dec-07 20:15 237 11.1
2019-Dec-07 20:10 222 10.6
2019-Dec-07 20:05 283 11.1
2019-Dec-07 20:00 324 11.1
2019-Dec-07 19:55 018 0 gusting 3 11.1
2019-Dec-07 19:50 014 0 gusting 3 11.1
2019-Dec-07 19:45 008 0 gusting 3 11.1
2019-Dec-07 19:40 032 0 gusting 1 11.1
2019-Dec-07 19:35 024 0 gusting 1 11.1
2019-Dec-07 19:30 015 0 gusting 2 11.1
2019-Dec-07 19:25 011 0 gusting 2 11.1
2019-Dec-07 19:20 028 0 gusting 2 11.1
2019-Dec-07 19:15 055 0 gusting 3 11.1
2019-Dec-07 19:10 005 0 gusting 3 11.1
2019-Dec-07 19:05 304 0 gusting 2 11.1
2019-Dec-07 19:00 305 0 gusting 4 11.7
2019-Dec-07 18:55 324 1 gusting 4 11.7
2019-Dec-07 18:50 321 1 gusting 4 11.7
2019-Dec-07 18:45 318 0 gusting 3 11.7
2019-Dec-07 18:40 352 0 gusting 3 11.7
2019-Dec-07 18:35 008 11.7
2019-Dec-07 18:30 008 11.7
2019-Dec-07 18:25 002 0 gusting 2 11.7
2019-Dec-07 18:20 350 0 gusting 3 11.7
2019-Dec-07 18:15 333 0 gusting 3 11.7
2019-Dec-07 18:10 340 1 gusting 3 11.7
2019-Dec-07 18:05 341 0 gusting 3 11.7
2019-Dec-07 18:00 338 0 gusting 3 11.7
2019-Dec-07 17:55 349 0 gusting 4 11.7
2019-Dec-07 17:50 343 0 gusting 4 11.7
2019-Dec-07 17:45 324 0 gusting 3 11.7
2019-Dec-07 17:40 327 0 gusting 3 11.7
2019-Dec-07 17:35 358 11.7
2019-Dec-07 17:30 002 0 gusting 2 12.2
2019-Dec-07 17:25 008 0 gusting 3 12.2
2019-Dec-07 17:20 019 1 gusting 3 12.2
2019-Dec-07 17:15 028 0 gusting 3 12.2
2019-Dec-07 17:10 020 0 gusting 3 12.2
2019-Dec-07 17:05 014 12.2
2019-Dec-07 17:00 028 12.2
2019-Dec-07 16:55 035 12.2
2019-Dec-07 16:50 050 0 gusting 2 12.8
2019-Dec-07 16:45 064 0 gusting 2 12.8
2019-Dec-07 16:40 064 0 gusting 2 12.8
2019-Dec-07 16:35 324 12.8
2019-Dec-07 16:30 289 12.8
2019-Dec-07 16:25 325 12.8
2019-Dec-07 16:20 276 13.3
2019-Dec-07 16:15 239 13.3
2019-Dec-07 16:10 206 13.3
2019-Dec-07 16:05 075 13.3
2019-Dec-07 16:00 057 13.3
2019-Dec-07 15:55 040 13.3
2019-Dec-07 15:50 269 13.9
2019-Dec-07 15:45 243 13.9
2019-Dec-07 15:40 235 0 gusting 3 13.9
2019-Dec-07 15:35 210 0 gusting 3 13.9
2019-Dec-07 15:30 175 1 gusting 3 13.9
2019-Dec-07 15:25 191 1 gusting 3 13.9
2019-Dec-07 15:20 216 1 gusting 3 14.4
2019-Dec-07 15:15 220 2 gusting 3 14.4
2019-Dec-07 15:10 218 2 gusting 3 14.4
2019-Dec-07 15:05 216 1 gusting 3 14.4
2019-Dec-07 15:00 219 1 gusting 3 14.4
2019-Dec-07 14:55 224 2 gusting 4 15.0
2019-Dec-07 14:50 215 2 gusting 4 15.0
2019-Dec-07 14:45 220 3 gusting 5 15.0
2019-Dec-07 14:40 226 3 gusting 6 15.0
2019-Dec-07 14:35 220 3 gusting 6 15.6
2019-Dec-07 14:30 224 3 gusting 6 15.6
2019-Dec-07 14:25 217 3 gusting 6 15.6
2019-Dec-07 14:20 209 3 gusting 6 15.0
2019-Dec-07 14:15 216 3 gusting 6 15.0
2019-Dec-07 14:10 223 3 gusting 6 15.0
2019-Dec-07 14:05 218 3 gusting 6 15.0
2019-Dec-07 14:00 214 2 gusting 6 15.0
2019-Dec-07 13:55 202 1 gusting 5 15.0
2019-Dec-07 13:50 190 1 gusting 4 15.0
2019-Dec-07 13:45 210 2 gusting 4 15.6
2019-Dec-07 13:40 223 1 gusting 4 15.6
2019-Dec-07 13:35 231 1 gusting 4 15.6
2019-Dec-07 13:30 234 2 gusting 6 15.6
2019-Dec-07 13:25 233 2 gusting 6 15.6
2019-Dec-07 13:20 231 3 gusting 6 15.6
2019-Dec-07 13:15 229 2 gusting 6 15.6
2019-Dec-07 13:10 234 2 gusting 6 15.6
2019-Dec-07 13:05 245 1 gusting 5 15.6
2019-Dec-07 13:00 246 2 gusting 6 15.6
2019-Dec-07 12:55 235 2 gusting 6 15.6
2019-Dec-07 12:50 236 1 gusting 4 15.6
2019-Dec-07 12:45 244 1 gusting 6 16.1
2019-Dec-07 12:40 224 2 gusting 6 16.1
2019-Dec-07 12:35 211 3 gusting 6 16.7
2019-Dec-07 12:30 186 2 gusting 7 16.7
2019-Dec-07 12:25 169 2 gusting 7 16.7
2019-Dec-07 12:20 181 2 gusting 6 16.7
2019-Dec-07 12:15 189 1 gusting 5 16.7
2019-Dec-07 12:10 185 2 gusting 6 16.7
2019-Dec-07 12:05 185 2 gusting 7 16.7
2019-Dec-07 12:00 176 2 gusting 8 16.7
2019-Dec-07 11:55 187 2 gusting 8 16.7
2019-Dec-07 11:50 187 3 gusting 8 16.7
2019-Dec-07 11:45 183 2 gusting 7 16.7
2019-Dec-07 11:40 178 2 gusting 6 16.7
2019-Dec-07 11:35 169 2 gusting 6 16.7
2019-Dec-07 11:30 165 2 gusting 5 16.7
2019-Dec-07 11:25 175 2 gusting 6 16.1
2019-Dec-07 11:20 190 2 gusting 6 16.1
2019-Dec-07 11:15 194 3 gusting 6 16.1
2019-Dec-07 11:10 190 2 gusting 7 16.7
2019-Dec-07 11:05 194 2 gusting 7 16.7
2019-Dec-07 11:00 202 2 gusting 6 16.1
2019-Dec-07 10:55 197 2 gusting 5 16.7
2019-Dec-07 10:50 188 1 gusting 5 16.1
2019-Dec-07 10:45 196 0 gusting 4 16.1
2019-Dec-07 10:40 181 0 gusting 3 16.1
2019-Dec-07 10:35 178 0 gusting 4 15.6
2019-Dec-07 10:30 175 0 gusting 4 15.6
2019-Dec-07 10:25 171 15.6
2019-Dec-07 10:20 219 15.6
2019-Dec-07 10:15 206 15.0
2019-Dec-07 10:10 232 0 gusting 3 15.0
2019-Dec-07 10:05 244 0 gusting 3 15.0
2019-Dec-07 10:00 235 0 gusting 3 14.4
2019-Dec-07 09:55 219 0 gusting 5 14.4
2019-Dec-07 09:50 201 1 gusting 7 15.0
2019-Dec-07 09:45 213 2 gusting 7 14.4
2019-Dec-07 09:40 222 2 gusting 7 14.4
2019-Dec-07 09:35 232 1 gusting 6 14.4
2019-Dec-07 09:30 244 1 gusting 6 14.4
2019-Dec-07 09:25 230 0 gusting 4 14.4
2019-Dec-07 09:20 230 0 gusting 3 14.4
2019-Dec-07 09:15 213 0 gusting 3 13.9
2019-Dec-07 09:10 199 0 gusting 3 13.9
2019-Dec-07 09:05 189 0 gusting 3 13.9
2019-Dec-07 09:00 199 0 gusting 3 13.9
2019-Dec-07 08:55 225 0 gusting 2 13.9
2019-Dec-07 08:50 205 13.3
2019-Dec-07 08:45 135 13.3
2019-Dec-07 08:40 135 13.3
2019-Dec-07 08:35 166 12.8
2019-Dec-07 08:30 172 13.3
2019-Dec-07 08:25 171 13.3
2019-Dec-07 08:20 167 12.8
2019-Dec-07 08:15 169 12.8
2019-Dec-07 08:10 174 12.8
2019-Dec-07 08:05 162 12.8
2019-Dec-07 08:00 130 12.8
2019-Dec-07 07:55 107 12.2
2019-Dec-07 07:50 102 12.2
2019-Dec-07 07:45 135 12.2
2019-Dec-07 07:40 135 12.2
2019-Dec-07 07:35 135 12.2
2019-Dec-07 07:30 135 12.2
2019-Dec-07 07:25 141 11.7
2019-Dec-07 07:20 146 12.2
2019-Dec-07 07:15 168 11.7
2019-Dec-07 07:10 193 11.7
2019-Dec-07 07:05 208 11.7
2019-Dec-07 07:00 200 11.7
2019-Dec-07 06:55 181 11.1
2019-Dec-07 06:50 171 11.1
2019-Dec-07 06:45 171 11.1
2019-Dec-07 06:40 262 11.1
2019-Dec-07 06:35 270 11.1
2019-Dec-07 06:30 270 11.1
2019-Dec-07 06:25 270 11.1
2019-Dec-07 06:20 270 10.6
2019-Dec-07 06:15 270 10.6
2019-Dec-07 06:10 270 10.6
2019-Dec-07 06:05 270 10.6
2019-Dec-07 06:00 270 10.6
2019-Dec-07 05:55 270 10.6
2019-Dec-07 05:50 270 10.6
2019-Dec-07 05:45 10.6
2019-Dec-07 05:40 10.6
2019-Dec-07 05:35 10.6
2019-Dec-07 05:30 10.6
2019-Dec-07 05:25 10.6
2019-Dec-07 05:20 270 10.6
2019-Dec-07 05:15 270 10.6
2019-Dec-07 05:10 295 10.0
2019-Dec-07 05:05 314 10.6
2019-Dec-07 05:00 332 10.6
2019-Dec-07 04:55 336 10.0
2019-Dec-07 04:50 357 10.0
2019-Dec-07 04:45 045 10.6
2019-Dec-07 04:40 10.0
2019-Dec-07 04:35 346 10.0
2019-Dec-07 04:30 350 10.0
2019-Dec-07 04:25 012 10.6
2019-Dec-07 04:20 022 10.6
2019-Dec-07 04:15 042 10.6
2019-Dec-07 04:10 086 10.6
2019-Dec-07 04:05 049 10.6
2019-Dec-07 04:00 006 10.6
2019-Dec-07 03:55 329 10.6
2019-Dec-07 03:50 012 10.6
2019-Dec-07 03:45 005 10.6
2019-Dec-07 03:40 013 10.6
2019-Dec-07 03:35 025 10.6
2019-Dec-07 03:30 345 10.6
2019-Dec-07 03:25 320 10.6
2019-Dec-07 03:20 026 10.6
2019-Dec-07 03:15 030 10.6
2019-Dec-07 03:10 025 10.0
2019-Dec-07 03:05 019 10.0
2019-Dec-07 03:00 027 10.6
2019-Dec-07 02:55 10.6
2019-Dec-07 02:50 10.6
2019-Dec-07 02:45 001 10.6
2019-Dec-07 02:40 007 10.6
2019-Dec-07 02:35 014 10.6
2019-Dec-07 02:30 019 10.6
2019-Dec-07 02:25 10.0
2019-Dec-07 02:20 10.6
2019-Dec-07 02:15 10.0
2019-Dec-07 02:10 10.0
2019-Dec-07 02:05 10.0
2019-Dec-07 02:00 10.6
2019-Dec-07 01:55 10.0
2019-Dec-07 01:50 10.0
2019-Dec-07 01:45 225 10.0
2019-Dec-07 01:40 225 10.0
2019-Dec-07 01:35 10.0
2019-Dec-07 01:30 10.0
2019-Dec-07 01:25 001 10.0
2019-Dec-07 01:20 336 10.0
2019-Dec-07 01:15 344 10.0
2019-Dec-07 01:10 003 10.0
2019-Dec-07 01:05 345 10.0
2019-Dec-07 01:00 334 10.0
2019-Dec-07 00:55 340 10.0
2019-Dec-07 00:50 012 10.0
2019-Dec-07 00:45 045 10.0
2019-Dec-07 00:40 019 10.0
2019-Dec-07 00:35 029 10.0
2019-Dec-07 00:30 040 10.0
2019-Dec-07 00:25 045 10.0
2019-Dec-07 00:20 056 10.0
2019-Dec-07 00:15 053 10.0
2019-Dec-07 00:10 029 10.0
2019-Dec-07 00:05 344 9.4
2019-Dec-07 00:00 343 9.4
2019-Dec-06 23:55 001 9.4
2019-Dec-06 23:50 001 9.4
2019-Dec-06 23:45 9.4
2019-Dec-06 23:40 9.4
2019-Dec-06 23:35 9.4
2019-Dec-06 23:30 9.4
2019-Dec-06 23:25 9.4
2019-Dec-06 23:20 045 9.4
2019-Dec-06 23:15 045 9.4
2019-Dec-06 23:10 054 9.4
2019-Dec-06 23:05 057 9.4
2019-Dec-06 23:00 054 9.4